Location: Bonny Doon Airfield
(37.0704°N, 122.1252°W)
Time: 02:40:59
(UTC-07:00)

Vanguard 3 - Visible Passes

Search period start: 17 October 2017 00:00
Search period end: 27 October 2017 00:00
Orbit: 510 x 3263 km, 33.3° (Epoch: 16 October)

Date Brightness Start Highest point End Pass type
(mag) Time Alt. Az. Time Alt. Az. Time Alt. Az.
17 Oct 10.1 04:19:19 22° S 04:24:53 29° SSE 04:32:45 10° E visible
17 Oct 8.8 06:26:57 10° WSW 06:38:15 52° SSE 06:44:38 10° E visible
18 Oct 10.6 03:10:10 22° SSE 03:10:10 22° SSE 03:18:04 10° ESE visible
18 Oct 9.4 05:14:48 19° SW 05:23:52 44° SSE 05:31:32 10° E visible
19 Oct 11.1 02:00:56 10° ESE 02:00:56 10° ESE 02:01:07 10° ESE visible
19 Oct 9.9 04:05:33 32° S 04:09:01 36° SSE 04:17:56 10° E visible
19 Oct 8.8 06:10:10 10° WSW 06:22:40 59° S 06:29:39 10° E visible
20 Oct 10.4 02:56:14 26° SE 02:56:14 26° SE 03:03:29 10° E visible
20 Oct 9.3 05:00:50 29° SW 05:08:04 51° SSE 05:16:32 10° E visible
21 Oct 11.1 01:46:50 11° ESE 01:46:50 11° ESE 01:47:24 10° ESE visible
21 Oct 9.8 03:51:26 41° S 03:53:01 42° SSE 04:02:55 10° E visible
21 Oct 8.9 05:56:02 17° WSW 06:07:00 65° S 06:14:37 10° E visible
22 Oct 10.4 02:41:58 28° ESE 02:41:58 28° ESE 02:48:35 10° E visible
22 Oct 9.3 04:46:34 39° SW 04:52:11 57° SSE 05:01:25 10° E visible
22 Oct 8.6 06:53:19 10° W 07:05:44 71° S 07:12:29 10° E visible
23 Oct 11.1 01:32:27 11° E 01:32:27 11° E 01:32:54 10° E visible
23 Oct 9.7 03:37:02 48° SSE 03:37:02 48° SSE 03:47:46 10° E visible
23 Oct 8.9 05:41:38 24° WSW 05:51:13 69° S 05:59:31 10° E visible
24 Oct 10.5 02:27:28 29° ESE 02:27:28 29° ESE 02:33:26 10° E visible
24 Oct 9.3 04:32:03 50° SW 04:36:09 63° SSE 04:46:13 10° E visible
24 Oct 8.7 06:36:38 10° W 06:50:05 72° S 06:57:24 10° E visible
25 Oct 11.2 01:17:50 10° E 01:17:50 10° E 01:17:56 10° E visible
25 Oct 9.7 03:22:25 52° SE 03:22:25 52° SE 03:32:29 10° E visible
25 Oct 9.0 05:27:00 31° WSW 05:35:20 73° S 05:44:21 10° E visible
26 Oct 10.6 02:12:45 28° ESE 02:12:45 28° ESE 02:18:05 10° E visible
26 Oct 9.3 04:17:20 60° SSW 04:20:02 68° SSE 04:30:57 10° E visible
26 Oct 8.9 06:21:55 15° W 06:34:20 73° S 06:42:18 10° ESE visible
